This is the latest recevied weather packets stored in our database for station/object KY4EF. If no packets are shown the sender has not sent any weather packets the latest 10 day(s).
| Time | Temp. | Humidity | Pressure | Rain* | Wind** | Luminosity | Snow |
|---|---|---|---|---|---|---|---|
| 1777378460 | 11.67° C | 99% | 1020.5 hPa | 3.05 mm | - | 17 W/m² | - |
| 1777378155 | 11.67° C | 99% | 1020.5 hPa | 4.83 mm | - | 11 W/m² | - |
| 1777377852 | 11.67° C | 99% | 1021.2 hPa | 4.32 mm | - | 7 W/m² | - |
| 1777377548 | 11.67° C | 99% | 1021.3 hPa | 6.1 mm | - | 4 W/m² | - |
| 1777377243 | 11.67° C | 99% | 1021.5 hPa | 6.1 mm | - | 3 W/m² | - |
| 1777376941 | 11.67° C | 99% | 1021.4 hPa | 4.83 mm | - | 2 W/m² | - |
| 1777376637 | 11.11° C | 99% | 1021.4 hPa | 4.83 mm | - | 2 W/m² | - |
| 1777376335 | 11.67° C | 99% | 1021.4 hPa | 6.1 mm | - | 1 W/m² | - |
| 1777376029 | 11.67° C | 99% | 1021.7 hPa | 6.1 mm | - | 1 W/m² | - |
| 1777375729 | 11.67° C | 99% | 1021.6 hPa | 7.87 mm | - | 1 W/m² | - |
| 1777375424 | 11.67° C | 99% | 1021.7 hPa | 7.87 mm | - | 1 W/m² | - |
| 1777375122 | 11.67° C | 99% | 1022.3 hPa | 7.87 mm | - | 1 W/m² | - |
| 1777374821 | 11.67° C | 99% | 1022.4 hPa | 6.1 mm | - | 1 W/m² | - |
| 1777374517 | 11.67° C | 99% | 1022.5 hPa | 4.32 mm | - | 0 W/m² | - |
| 1777374214 | 11.67° C | 99% | 1022.3 hPa | 13.72 mm | - | 0 W/m² | - |
| 1777373910 | 11.67° C | 99% | 1021.9 hPa | 21.59 mm | - | 0 W/m² | - |
| 1777373607 | 11.67° C | 99% | 1021.9 hPa | 16.76 mm | - | 0 W/m² | - |
| 1777373304 | 11.67° C | 99% | 1021.9 hPa | 7.87 mm | - | 0 W/m² | - |
| 1777372999 | 11.11° C | 99% | 1020.1 hPa | 13.72 mm | - | 0 W/m² | - |
| 1777372695 | 11.67° C | 99% | 1019.6 hPa | 18.03 mm | - | 0 W/m² | - |
| 1777372394 | 11.67° C | 99% | 1019.6 hPa | 10.16 mm | - | 0 W/m² | - |
| 1777372093 | 11.11° C | 99% | 1020.8 hPa | 3.05 mm | - | 0 W/m² | - |
| 1777371789 | 11.11° C | 99% | 1020 hPa | 4.32 mm | - | 0 W/m² | - |
| 1777371485 | 11.11° C | 99% | 1018.6 hPa | 6.6 mm | - | 0 W/m² | - |
| 1777371181 | 11.67° C | 99% | 1018.8 hPa | 7.87 mm | - | 0 W/m² | - |
* Rain latest hour (hover to see other rain measurements)
** Current wind speed in m/s (hover to see current wind gust speed)